Wind_Speed
3 3 3 3 3 4 3 4 4 4 4 5 5 4 4 4 4 3 3 2 2 2 2 2 3 3 3 4 4 4 4 4 5 5 6 6 6 6 6 7 7 7 8
2 2 2 3 3 4 4 3 3 3 4 4 4 4 4 4 3 2 3 3 3 3 3 4 4 4 5 5 5 5 5 5 6 6 6 8 8 8 8 8 9 9 9
1 1 2 2 2 3 4 3 3 3 4 4 5 4 4 3 3 3 3 4 4 4 5 5 5 5 5 6 6 7 7 7 8 8 8 8 8 9 9 10 10 10 10
1 1 1 2 3 3 4 3 3 3 4 4 4 4 4 4 3 3 3 4 5 5 6 6 6 6 7 7 8 8 8 9 10 10 9 8 9 9 9 9 10 11 11
1 1 2 3 3 3 4 4 3 3 3 3 3 4 4 4 3 4 4 4 5 6 6 7 7 8 8 8 9 9 9 10 10 10 10 10 10 10 11 11 11 11 12
1 1 2 3 3 3 4 4 4 4 4 4 4 4 4 5 4 5 5 6 6 6 7 8 8 8 8 9 10 10 10 10 10 10 11 11 11 11 12 12 12 12 13
2 1 1 2 3 4 4 4 5 5 6 5 5 5 5 6 6 6 7 7 8 8 8 8 9 9 10 10 10 10 11 11 11 11 11 12 12 12 13 13 13 13 13
3 2 2 2 3 3 4 5 5 5 5 6 6 6 6 7 7 8 8 8 9 9 9 9 10 11 11 12 12 12 13 12 12 12 12 12 12 13 13 14 14 15 14
4 3 3 3 4 4 4 4 5 5 5 5 6 7 8 8 8 9 9 9 9 10 11 11 11 12 12 12 13 13 13 13 13 13 13 13 13 14 14 14 15 15 16
6 5 5 4 4 4 4 5 5 6 6 6 7 8 8 9 9 10 10 10 10 10 11 11 11 11 12 13 13 13 14 14 14 13 14 14 14 14 15 15 16 15 16
6 6 6 6 5 4 5 5 6 7 7 7 8 8 9 10 10 10 10 11 11 12 12 12 13 13 13 13 13 14 15 15 14 15 15 15 15 15 16 16 16 16 16
8 7 7 8 7 6 5 6 7 8 8 9 9 10 10 10 10 10 11 11 12 12 12 13 13 14 14 14 14 15 15 15 16 16 16 16 17 17 17 18 18 18 17
8 9 9 9 8 7 7 7 8 8 9 10 10 11 11 10 11 11 12 12 13 13 13 14 15 15 15 15 16 16 15 15 16 16 17 17 17 17 18 18 18 18 18
9 9 10 10 10 10 9 9 9 9 10 10 10 11 11 11 11 12 13 13 14 14 14 15 15 15 14 15 16 16 16 16 16 17 18 18 18 18 19 19 20 20 19
10 10 11 11 11 11 10 10 10 10 10 10 10 11 12 12 13 14 14 14 15 15 15 15 16 16 16 16 16 16 16 17 17 18 18 19 19 19 20 20 20 20 20
11 11 12 12 12 12 11 11 11 11 11 11 11 12 13 13 14 14 15 15 15 16 16 17 17 17 17 17 17 17 17 18 19 20 20 20 21 21 21 21 21 21 22
13 13 13 13 13 13 13 13 13 13 13 13 13 14 14 14 15 15 15 16 16 16 16 17 17 18 19 19 19 19 19 20 20 21 21 22 21 22 22 22 23 24 24
14 14 15 15 16 15 15 15 16 15 15 15 15 15 15 16 16 16 16 17 17 17 17 17 17 18 19 19 19 20 20 21 20 20 21 22 23 23 22 23 23 24 25
16 16 16 17 17 17 17 16 16 16 17 16 17 17 17 18 17 18 18 18 19 19 19 18 18 19 19 19 20 21 21 21 21 22 22 23 23 23 24 24 25 25 25
18 18 18 19 19 18 19 18 18 18 18 18 18 19 19 19 19 19 19 20 20 20 20 21 21 21 22 22 22 22 23 23 23 24 24 24 24 24 24 25 26 26 27
21 21 21 21 21 21 21 20 20 20 20 20 21 21 21 21 21 21 21 21 22 22 22 23 23 23 24 24 24 24 25 25 25 25 25 25 25 25 26 27 28 28 28
23 23 24 24 24 24 23 23 23 23 22 22 23 23 23 22 22 22 22 23 23 24 24 24 25 25 25 26 26 26 27 27 27 26 26 26 26 26 27 27 28 29 29
24 25 25 26 26 26 26 26 26 26 25 25 24 25 25 25 25 25 24 24 24 25 26 27 27 27 28 28 28 28 28 28 28 27 27 27 28 28 29 29 30 30 30
26 27 28 28 27 28 28 29 29 29 28 27 26 26 27 27 27 27 26 26 26 27 27 27 28 29 29 29 29 28 28 29 29 30 30 30 30 30 30 31 31 31 31
29 29 30 30 30 31 31 31 31 31 29 29 28 28 28 28 28 28 28 28 28 28 29 29 29 29 30 30 30 30 30 30 30 30 31 31 32 32 32 32 32 33 33
32 32 32 32 33 33 33 33 32 31 30 29 29 29 29 29 29 30 30 30 29 29 30 30 30 31 31 31 31 31 31 31 32 31 32 32 33 33 34 34 35 35 35
Wind_Direction
138 144 147 150 164 173 175 166 165 169 168 162 162 160 156 157 161 169 171 196 208 225 253 256 256 261 265 270 276 273 274 273 272 272 263 260 264 264 265 267 273 277 278
160 157 156 181 183 180 184 180 180 177 178 176 171 172 171 174 186 200 210 224 234 246 262 267 270 269 270 272 278 276 274 276 285 285 276 265 267 269 265 267 270 274 280
157 142 164 186 202 198 200 197 191 188 181 185 191 191 189 196 211 224 237 245 250 259 267 272 276 273 272 270 274 276 274 277 286 283 280 275 269 269 268 270 270 271 276
179 198 191 204 213 211 209 209 203 196 197 199 204 209 211 219 230 242 251 254 258 263 266 269 268 272 275 274 273 274 275 280 284 282 281 276 274 272 272 271 273 275 275
260 252 237 231 238 231 226 218 218 224 224 223 225 224 226 234 250 267 262 265 268 269 273 271 272 275 279 278 275 276 277 280 282 279 277 276 276 273 273 273 277 278 278
305 252 272 263 253 244 231 229 236 240 243 247 244 236 239 249 264 270 271 272 273 274 277 279 279 279 280 280 277 277 280 284 282 281 277 278 278 277 275 277 281 281 281
3 339 304 274 266 262 246 245 256 253 250 253 247 248 254 262 270 273 275 274 275 277 282 281 277 280 281 281 281 281 283 284 281 283 279 280 279 280 279 279 280 282 282
6 325 306 312 299 274 255 254 264 257 254 253 250 256 259 265 273 276 275 275 276 280 281 278 279 282 281 282 284 282 281 280 278 281 279 280 279 278 278 278 278 279 282
7 355 334 319 307 298 273 263 266 260 254 254 256 261 264 268 273 279 278 276 277 279 279 279 279 283 286 285 286 285 280 277 274 277 277 277 278 278 278 277 279 279 280
7 357 348 338 321 305 282 271 271 269 268 269 266 266 269 272 275 277 280 279 279 280 282 284 285 286 286 286 286 286 284 281 277 277 275 275 277 278 279 280 281 281 281
359 351 347 339 327 311 292 285 276 278 279 278 274 273 275 277 278 279 279 282 285 285 287 288 289 289 290 290 289 288 286 283 281 281 280 279 279 280 281 281 282 282 281
357 349 338 336 329 321 303 290 289 288 283 281 279 279 281 280 282 285 285 285 287 286 286 287 289 290 290 291 290 288 286 283 280 281 281 280 281 281 281 281 282 282 281
350 347 338 330 323 316 308 299 296 294 291 286 284 284 284 281 285 288 290 291 291 290 288 287 286 286 286 289 288 287 287 284 281 281 282 281 281 282 283 281 281 281 280
343 342 339 330 323 318 312 303 299 295 295 293 290 291 291 288 288 290 289 291 293 293 289 286 287 287 287 288 290 288 284 283 284 282 283 283 283 284 286 283 283 280 280
333 331 331 328 327 324 318 311 307 299 296 296 293 293 291 289 288 288 286 288 290 292 292 290 287 286 288 291 291 290 288 286 285 285 285 284 284 284 284 283 283 280 281
328 327 326 325 323 321 318 311 307 304 297 297 295 293 294 294 294 291 290 290 292 292 291 292 291 290 290 291 290 291 290 290 288 287 287 286 283 283 282 282 282 280 280
321 322 320 322 321 317 315 311 305 305 305 304 297 294 294 295 295 293 292 293 296 297 295 293 293 291 290 290 289 289 288 289 288 288 288 290 289 286 285 283 284 283 282
314 316 320 320 318 315 309 307 304 303 303 300 299 299 296 296 295 294 293 293 294 296 296 297 297 295 293 291 291 292 291 290 289 289 289 289 288 289 288 289 288 287 286
310 314 318 320 319 317 313 309 307 306 305 302 296 296 295 292 294 293 292 291 291 292 294 294 295 296 296 294 294 294 292 292 291 291 291 290 290 289 288 288 288 289 288
304 306 309 312 313 312 310 307 306 305 304 303 299 295 294 293 294 291 288 288 289 290 292 293 293 294 295 296 296 296 296 295 293 292 292 292 290 290 289 288 288 288 288
298 300 302 305 307 307 306 304 301 300 300 298 297 297 295 294 293 293 290 288 287 289 291 291 292 291 292 294 295 296 296 296 295 295 294 294 293 292 291 290 289 289 289
295 297 298 300 301 302 301 300 298 296 296 295 294 293 292 293 293 293 290 288 286 287 288 290 290 290 291 292 293 294 294 295 295 294 294 294 293 292 291 291 291 290 289
292 293 294 296 297 298 298 298 296 294 294 293 294 291 289 289 290 292 291 288 288 288 288 289 289 289 291 291 292 293 293 293 294 294 294 293 293 292 291 291 291 290 290
287 289 291 293 294 295 295 296 295 292 293 292 292 293 290 289 288 289 290 289 289 290 290 289 289 289 289 291 291 291 291 293 293 292 292 292 292 291 291 291 291 291 290
284 286 288 290 293 295 294 293 294 293 291 289 289 291 291 287 285 286 287 288 289 289 289 289 289 290 290 291 291 291 291 292 292 291 291 291 292 292 292 293 293 292 291
281 282 286 288 292 294 293 293 292 293 291 289 288 288 289 288 286 286 285 285 288 289 289 287 288 290 290 291 292 292 292 292 292 291 291 291 292 293 293 293 293 292 292
Height
5882 5882 5883 5884 5885 5886 5887 5888 5889 5890 5890 5891 5891 5892 5893 5894 5895 5895 5896 5897 5897 5898 5898 5898 5899 5899 5899 5900 5900 5900 5901 5901 5901 5901 5901 5901 5901 5901 5902 5902 5902 5902 5902
5882 5883 5884 5885 5885 5886 5887 5888 5889 5890 5890 5891 5892 5893 5893 5894 5895 5895 5896 5896 5897 5897 5897 5898 5898 5898 5898 5898 5899 5899 5899 5900 5900 5900 5899 5899 5900 5900 5900 5900 5900 5900 5900
5883 5884 5885 5885 5885 5886 5887 5888 5889 5890 5890 5891 5892 5892 5893 5894 5894 5895 5895 5896 5896 5896 5896 5896 5897 5896 5897 5897 5897 5897 5898 5898 5898 5898 5898 5897 5897 5897 5897 5897 5897 5897 5897
5884 5884 5885 5885 5886 5887 5887 5888 5889 5889 5890 5890 5891 5891 5892 5893 5894 5894 5894 5895 5895 5895 5895 5895 5895 5895 5895 5895 5895 5896 5896 5896 5896 5895 5895 5895 5895 5895 5895 5895 5895 5895 5895
5884 5884 5884 5885 5886 5886 5887 5888 5888 5889 5889 5890 5890 5891 5892 5892 5893 5893 5893 5893 5894 5894 5894 5893 5894 5893 5893 5893 5893 5893 5893 5893 5893 5893 5893 5893 5892 5892 5892 5892 5892 5892 5892
5884 5884 5884 5885 5885 5886 5886 5887 5888 5888 5889 5889 5890 5890 5891 5891 5892 5892 5892 5892 5892 5892 5892 5892 5892 5891 5891 5891 5891 5891 5891 5890 5890 5890 5890 5890 5889 5889 5889 5889 5889 5889 5888
5884 5884 5885 5885 5885 5886 5886 5886 5887 5887 5888 5888 5889 5889 5890 5890 5890 5890 5890 5890 5890 5890 5890 5890 5890 5889 5889 5889 5889 5888 5888 5888 5887 5887 5886 5886 5886 5886 5886 5886 5886 5885 5885
5885 5885 5885 5885 5885 5885 5885 5885 5886 5886 5886 5887 5888 5888 5888 5889 5889 5888 5888 5888 5888 5888 5888 5887 5887 5887 5887 5886 5886 5886 5885 5885 5884 5884 5884 5883 5883 5883 5882 5882 5882 5882 5881
5885 5885 5885 5885 5885 5884 5884 5884 5884 5884 5885 5885 5886 5886 5887 5887 5887 5887 5886 5886 5886 5886 5885 5885 5885 5884 5884 5884 5883 5882 5882 5881 5881 5881 5880 5880 5880 5879 5879 5878 5878 5878 5877
5886 5885 5885 5884 5884 5883 5883 5883 5883 5883 5884 5884 5884 5884 5884 5884 5884 5884 5884 5884 5883 5883 5883 5882 5882 5882 5881 5881 5880 5879 5878 5878 5877 5877 5877 5876 5876 5876 5875 5875 5874 5874 5873
5886 5885 5884 5883 5883 5882 5883 5882 5882 5882 5882 5882 5882 5882 5882 5882 5881 5881 5881 5881 5880 5880 5880 5879 5879 5878 5878 5877 5876 5876 5875 5874 5874 5874 5873 5873 5872 5872 5871 5871 5870 5870 5869
5886 5885 5884 5883 5882 5881 5881 5881 5881 5880 5880 5880 5880 5880 5879 5879 5879 5879 5878 5878 5878 5877 5876 5876 5876 5875 5874 5874 5873 5872 5871 5871 5870 5870 5869 5869 5868 5868 5867 5866 5866 5865 5865
5886 5885 5884 5882 5881 5880 5880 5879 5879 5878 5878 5878 5878 5877 5877 5876 5876 5876 5876 5875 5875 5874 5873 5872 5872 5871 5870 5869 5869 5868 5867 5867 5866 5865 5865 5864 5864 5863 5862 5862 5861 5860 5860
5886 5884 5883 5882 5880 5879 5878 5877 5877 5876 5876 5875 5875 5874 5874 5874 5873 5873 5873 5872 5871 5871 5870 5869 5868 5867 5866 5865 5865 5864 5863 5862 5861 5861 5860 5860 5859 5858 5858 5857 5856 5855 5855
5884 5883 5882 5880 5879 5877 5876 5875 5874 5874 5873 5873 5872 5872 5871 5871 5871 5870 5869 5869 5868 5867 5867 5865 5864 5863 5862 5862 5860 5859 5859 5858 5857 5856 5855 5855 5854 5853 5852 5852 5851 5850 5849
5883 5882 5880 5879 5877 5876 5875 5874 5872 5871 5871 5870 5869 5869 5868 5868 5867 5866 5866 5865 5864 5863 5862 5861 5860 5859 5858 5857 5856 5855 5854 5853 5852 5851 5850 5849 5849 5848 5847 5846 5845 5844 5843
5881 5879 5878 5877 5875 5874 5873 5872 5870 5869 5868 5867 5866 5866 5865 5864 5863 5862 5862 5861 5860 5859 5858 5857 5856 5854 5853 5852 5851 5850 5849 5848 5847 5846 5845 5844 5843 5842 5841 5840 5839 5838 5837
5878 5877 5875 5874 5872 5871 5870 5869 5868 5866 5865 5864 5863 5862 5861 5860 5859 5858 5857 5857 5856 5855 5854 5853 5851 5850 5848 5847 5846 5845 5844 5843 5842 5840 5839 5838 5837 5836 5835 5834 5833 5832 5831
5875 5874 5873 5871 5870 5868 5867 5866 5864 5863 5862 5860 5860 5859 5858 5856 5855 5854 5853 5852 5851 5850 5849 5848 5847 5845 5844 5842 5841 5840 5838 5837 5836 5835 5833 5832 5831 5830 5828 5827 5826 5825 5824
5872 5871 5869 5868 5867 5865 5864 5862 5861 5859 5858 5857 5855 5854 5853 5852 5850 5849 5848 5847 5846 5845 5844 5843 5842 5841 5839 5837 5836 5834 5833 5831 5830 5828 5827 5825 5824 5823 5822 5820 5819 5818 5816
5868 5867 5865 5864 5862 5861 5860 5858 5856 5855 5854 5852 5851 5849 5848 5847 5845 5844 5843 5842 5841 5840 5839 5837 5836 5835 5833 5832 5830 5828 5827 5825 5823 5822 5820 5819 5817 5816 5815 5813 5812 5810 5808
5863 5862 5861 5859 5858 5856 5855 5853 5851 5850 5848 5847 5845 5844 5842 5841 5839 5838 5837 5836 5835 5834 5832 5831 5830 5828 5827 5825 5824 5822 5820 5819 5817 5816 5814 5812 5810 5809 5807 5806 5804 5802 5801
5857 5856 5855 5854 5852 5851 5849 5847 5845 5844 5842 5841 5839 5837 5835 5834 5833 5832 5830 5829 5828 5827 5826 5824 5823 5822 5820 5818 5816 5815 5813 5811 5810 5808 5807 5805 5803 5801 5799 5798 5796 5794 5793
5851 5850 5849 5848 5846 5844 5842 5840 5838 5837 5836 5834 5832 5830 5828 5827 5826 5825 5823 5822 5821 5820 5818 5817 5816 5814 5813 5811 5809 5807 5805 5804 5802 5800 5799 5797 5795 5794 5791 5790 5788 5786 5784
5844 5843 5842 5840 5839 5837 5835 5833 5831 5829 5827 5826 5825 5823 5821 5820 5818 5817 5816 5815 5813 5812 5810 5809 5808 5806 5805 5803 5801 5799 5798 5796 5794 5792 5790 5789 5787 5785 5783 5781 5779 5777 5775
5836 5835 5834 5833 5831 5829 5827 5825 5823 5820 5819 5818 5817 5815 5814 5812 5810 5809 5807 5806 5805 5804 5802 5801 5799 5798 5797 5795 5793 5791 5789 5787 5785 5784 5781 5779 5777 5775 5774 5772 5769 5767 5765